This demonstration page uses our WeatherBlox Daily Observations layout. Learn more.

Left ArrowRight Arrow

41.55636, -103.73856

Hourly Observations for April 17, 2018

Temp ( °F °C ) Dew Point ( °F °C ) Humidity (%) Winds ( mph kmh ) Pressure ( in mb ) Visibility ( mi km ) Precip ( " mm )
12:58 am 00:58 Clear 42 5.6 28 -2.4 57 57 S 6 9 29.63 1003 10 16 N/A
1:58 am 01:58 Clear 42 5.6 27 -2.6 56 56 SSE 16 26 29.60 1002 10 16 N/A
2:58 am 02:58 Clear 38 3.6 28 -2.5 65 65 S 10 17 29.61 1003 10 16 N/A
3:58 am 03:58 Clear 35 1.7 27 -2.7 73 73 S 8 13 29.63 1003 N/A N/A
4:58 am 04:58 Clear 33 0.7 26 -3.1 76 76 S 3 6 29.62 1003 10 16 N/A
5:58 am 05:58 Clear 30 -1 26 -3.3 85 85 SSE 12 19 29.62 1003 10 16 N/A
6:58 am 06:58 Sunny 29 -1.4 27 -3 89 89 SSE 9 15 29.63 1003 10 16 N/A
7:58 am 07:58 Sunny 35 1.4 29 -1.6 81 81 SE 10 17 29.62 1003 10 16 N/A
8:58 am 08:58 Sunny 40 4.2 30 -1.2 68 68 SSE 12 19 29.57 1001 10 16 N/A
9:58 am 09:58 Sunny 49 9.5 34 0.9 55 55 SE 10 17 29.50 999 10 16 N/A
10:58 am 10:58 Sunny 57 13.9 35 1.4 43 43 SE 13 20 29.46 998 10 16 N/A
11:58 am 11:58 Partly Cloudy 63 17.4 31 -0.3 30 30 E 7 11 29.44 997 10 16 N/A
12:58 pm 12:58 Mostly Cloudy 60 15.6 26 -3.1 28 28 NW 23 37 29.47 998 10 16 N/A
1:58 pm 13:58 Mostly Cloudy 57 13.9 36 2.1 45 45 N 23 37 29.52 1000 10 16 N/A
2:58 pm 14:58 Mostly Cloudy 52 11.1 22 -5.4 31 31 WNW 35 56 29.63 1004 10 16 N/A
3:58 pm 15:58 Cloudy 51 10.3 20 -6.9 29 29 NW 25 41 29.70 1006 10 16 N/A
4:58 pm 16:58 Mostly Cloudy 47 8.6 24 -4.4 40 40 NW 38 61 29.76 1008 10 16 N/A
5:58 pm 17:58 Cloudy 45 7.4 24 -4.7 42 42 WNW 29 46 29.83 1010 10 16 N/A
6:58 pm 18:58 Cloudy with Showers 33 0.6 31 -0.3 94 94 NNW 40 65 29.96 1015 2 4 0.03 0.76
7:58 pm 19:58 Windy with Rain Showers Likely 33 0.8 30 -0.9 89 89 NW 33 54 30.01 1016 10 16 N/A
8:58 pm 20:58 Mostly Clear 32 0.2 29 -1.7 87 87 NNW 32 52 30.05 1018 10 16 N/A
9:58 pm 21:58 Mostly Clear 31 -0.5 28 -2 90 90 NNW 28 44 30.03 1017 10 16 N/A
10:58 pm 22:58 Clear 30 -1.1 27 -2.8 88 88 NW 24 39 30.01 1016 10 16 N/A
11:58 pm 23:58 Clear 30 -1.2 25 -3.9 82 82 NNW 22 35 30.00 1016 10 16 N/A

Powered by AerisWeather